• In Latvia
  • List of Countries
  • For 7 days
  • Water Temperature
  • Satellite Maps
  • Weather Map
  • Weather Widgets
  • user-avatar
    Login

    Hourly Weather Akniste

    Today, 21 October, Saturday

    Time Temperature Precipitation Wind Pressure Humidity
    00:00 +4°C° 0 mm 2 mps 758 mmHg 89%
    01:00 +4°C° 0 mm 2 mps 757 mmHg 89%
    02:00 +3°C° 0 mm 2 mps 757 mmHg 90%
    03:00 +3°C° 0 mm 2 mps 757 mmHg 90%
    04:00 +3°C° 0 mm 2 mps 757 mmHg 89%
    05:00 +2°C° 0 mm 3 mps 757 mmHg 89%
    06:00 +2°C° 0 mm 3 mps 757 mmHg 89%
    07:00 +2°C° 0 mm 3 mps 757 mmHg 88%
    08:00 +2°C° 0 mm 3 mps 757 mmHg 88%
    09:00 +3°C° 0 mm 3 mps 757 mmHg 83%
    10:00 +4°C° 0 mm 3 mps 757 mmHg 77%
    11:00 +5°C° 0 mm 3 mps 757 mmHg 72%
    12:00 +5°C° 0 mm 3 mps 757 mmHg 69%
    13:00 +7°C° 0 mm 3 mps 756 mmHg 66%
    14:00 +7°C° 0 mm 3 mps 756 mmHg 62%
    15:00 +5°C° 0 mm 3 mps 756 mmHg 67%
    16:00 +5°C° 0 mm 2 mps 756 mmHg 72%
    17:00 +4°C° 0 mm 2 mps 756 mmHg 76%
    18:00 +3°C° 0 mm 2 mps 756 mmHg 79%
    19:00 +2°C° 0 mm 2 mps 757 mmHg 82%
    20:00 +2°C° 0 mm 2 mps 757 mmHg 85%
    21:00 +1°C° 0 mm 2 mps 757 mmHg 86%
    22:00 +1°C° 0 mm 2 mps 757 mmHg 88%
    23:00 -1°C° 0 mm 2 mps 757 mmHg 90%

    Tomorrow, 22 October, Sunday

    Time Temperature Precipitation Wind Pressure Humidity
    00:00 +1°C° 0 mm 1 mps 757 mmHg 91%
    01:00 +1°C° 0 mm 1 mps 758 mmHg 92%
    02:00 0°C° 0 mm 1 mps 758 mmHg 92%
    03:00 0°C° 0 mm 1 mps 758 mmHg 92%
    04:00 0°C° 0 mm 1 mps 757 mmHg 92%
    05:00 0°C° 0 mm 1 mps 757 mmHg 92%
    06:00 0°C° 0 mm 1 mps 757 mmHg 89%
    07:00 +1°C° 0 mm 1 mps 757 mmHg 87%
    08:00 +1°C° 0 mm 1 mps 757 mmHg 85%
    09:00 +2°C° 0 mm 1 mps 757 mmHg 77%
    10:00 +4°C° 0 mm 1 mps 757 mmHg 68%
    11:00 +6°C° 0 mm 1 mps 757 mmHg 59%
    12:00 +6°C° 0 mm 1 mps 757 mmHg 56%
    13:00 +7°C° 0 mm 1 mps 757 mmHg 54%
    14:00 +7°C° 0 mm 1 mps 756 mmHg 51%
    15:00 +6°C° 0 mm 1 mps 756 mmHg 57%
    16:00 +3°C° 0 mm 0 mps 756 mmHg 63%
    17:00 +2°C° 0 mm 0 mps 756 mmHg 69%
    18:00 +1°C° 0 mm 0 mps 756 mmHg 71%
    19:00 +1°C° 0 mm 0 mps 756 mmHg 73%
    20:00 +1°C° 0 mm 1 mps 756 mmHg 75%
    21:00 +1°C° 0 mm 1 mps 756 mmHg 76%
    22:00 +1°C° 0 mm 1 mps 756 mmHg 77%
    23:00 +1°C° 0 mm 1 mps 756 mmHg 78%

    Day after tomorrow, 23 October, Monday

    Time Temperature Precipitation Wind Pressure Humidity
    00:00 +1°C° 0 mm 1 mps 756 mmHg 78%
    01:00 +1°C° 0 mm 1 mps 756 mmHg 79%
    02:00 +1°C° 0 mm 1 mps 756 mmHg 79%
    03:00 0°C° 0 mm 1 mps 756 mmHg 80%
    04:00 0°C° 0 mm 1 mps 756 mmHg 80%
    05:00 0°C° 0 mm 1 mps 756 mmHg 81%
    06:00 0°C° 0 mm 1 mps 756 mmHg 80%
    07:00 +1°C° 0 mm 1 mps 756 mmHg 79%
    08:00 -1°C° 0 mm 2 mps 757 mmHg 78%
    09:00 +1°C° 0 mm 2 mps 757 mmHg 72%
    10:00 +2°C° 0 mm 2 mps 757 mmHg 67%
    11:00 +3°C° 0 mm 3 mps 757 mmHg 61%
    12:00 +3°C° 0 mm 3 mps 758 mmHg 59%
    13:00 +4°C° 0 mm 3 mps 758 mmHg 58%
    14:00 +4°C° 0 mm 3 mps 758 mmHg 56%
    15:00 +3°C° 0 mm 3 mps 758 mmHg 62%
    16:00 +3°C° 0 mm 2 mps 758 mmHg 69%
    17:00 +2°C° 0 mm 2 mps 759 mmHg 75%
    18:00 +1°C° 0 mm 2 mps 759 mmHg 77%
    19:00 0°C° 0 mm 3 mps 760 mmHg 80%
    20:00 0°C° 0 mm 3 mps 760 mmHg 83%
    21:00 -1°C° 0 mm 3 mps 761 mmHg 84%
    22:00 -1°C° 0 mm 3 mps 761 mmHg 85%
    23:00 -2°C° 0 mm 3 mps 762 mmHg 85%

    24 October, Tuesday

    Time Temperature Precipitation Wind Pressure Humidity
    00:00 -2°C° 0 mm 2 mps 762 mmHg 85%
    01:00 -2°C° 0 mm 2 mps 763 mmHg 85%
    02:00 -2°C° 0 mm 2 mps 763 mmHg 85%
    03:00 -3°C° 0 mm 2 mps 763 mmHg 85%
    04:00 -3°C° 0 mm 2 mps 764 mmHg 85%
    05:00 -3°C° 0 mm 2 mps 764 mmHg 85%
    06:00 -3°C° 0 mm 2 mps 764 mmHg 83%
    07:00 -3°C° 0 mm 2 mps 765 mmHg 82%
    08:00 -3°C° 0 mm 2 mps 765 mmHg 80%
    09:00 -1°C° 0 mm 3 mps 765 mmHg 73%
    10:00 0°C° 0 mm 3 mps 766 mmHg 66%
    11:00 +2°C° 0 mm 3 mps 766 mmHg 59%
    12:00 +2°C° 0 mm 3 mps 766 mmHg 56%
    13:00 +3°C° 0 mm 3 mps 766 mmHg 54%
    14:00 +4°C° 0 mm 2 mps 766 mmHg 52%
    15:00 +3°C° 0 mm 2 mps 766 mmHg 57%
    16:00 +2°C° 0 mm 2 mps 766 mmHg 63%
    17:00 -1°C° 0 mm 2 mps 767 mmHg 68%
    18:00 -1°C° 0 mm 2 mps 767 mmHg 71%
    19:00 -2°C° 0 mm 2 mps 767 mmHg 73%
    20:00 -2°C° 0 mm 2 mps 767 mmHg 76%
    21:00 -2°C° 0 mm 2 mps 768 mmHg 76%
    22:00 -3°C° 0 mm 2 mps 768 mmHg 77%
    23:00 -3°C° 0 mm 2 mps 768 mmHg 78%

    25 October, Wednesday

    Time Temperature Precipitation Wind Pressure Humidity
    00:00 -1°C° 0 mm 1 mps 768 mmHg 78%
    01:00 -1°C° 0 mm 1 mps 768 mmHg 78%
    02:00 -1°C° 0 mm 1 mps 768 mmHg 78%
    03:00 -1°C° 0 mm 1 mps 768 mmHg 77%
    04:00 -1°C° 0 mm 1 mps 768 mmHg 77%
    05:00 -1°C° 0 mm 1 mps 768 mmHg 77%
    06:00 -1°C° 0 mm 1 mps 768 mmHg 76%
    07:00 -3°C° 0 mm 2 mps 768 mmHg 75%
    08:00 -3°C° 0 mm 2 mps 768 mmHg 75%
    09:00 -2°C° 0 mm 2 mps 768 mmHg 68%
    10:00 +1°C° 0 mm 2 mps 769 mmHg 61%
    11:00 +2°C° 0 mm 2 mps 769 mmHg 54%
    12:00 +3°C° 0 mm 2 mps 768 mmHg 52%
    13:00 +3°C° 0 mm 2 mps 768 mmHg 49%
    14:00 +4°C° 0 mm 2 mps 767 mmHg 47%
    15:00 +3°C° 0 mm 2 mps 767 mmHg 53%
    16:00 +1°C° 0 mm 2 mps 767 mmHg 59%
    17:00 -1°C° 0 mm 2 mps 767 mmHg 64%
    18:00 -1°C° 0 mm 2 mps 767 mmHg 66%
    19:00 -2°C° 0 mm 2 mps 767 mmHg 67%
    20:00 -2°C° 0 mm 3 mps 766 mmHg 68%
    21:00 -2°C° 0 mm 3 mps 766 mmHg 66%
    22:00 -1°C° 0 mm 3 mps 766 mmHg 65%
    23:00 -1°C° 0 mm 3 mps 766 mmHg 63%

    26 October, Thursday

    Time Temperature Precipitation Wind Pressure Humidity
    00:00 -2°C° 0 mm 4 mps 765 mmHg 63%
    01:00 -2°C° 0 mm 4 mps 765 mmHg 63%
    02:00 -2°C° 0 mm 4 mps 764 mmHg 63%
    03:00 -2°C° 0 mm 4 mps 764 mmHg 62%
    04:00 -2°C° 0 mm 4 mps 763 mmHg 61%
    05:00 -1°C° 0 mm 5 mps 762 mmHg 61%
    06:00 -1°C° 0.1 mm 5 mps 761 mmHg 62%
    07:00 -1°C° 0.1 mm 5 mps 761 mmHg 63%
    08:00 -1°C° 0.1 mm 5 mps 760 mmHg 64%
    09:00 -1°C° 0.5 mm 5 mps 759 mmHg 67%
    10:00 -2°C° 0.5 mm 6 mps 759 mmHg 70%
    11:00 -2°C° 0.5 mm 6 mps 758 mmHg 73%
    12:00 -2°C° 0.6 mm 6 mps 758 mmHg 76%
    13:00 -1°C° 0.6 mm 5 mps 757 mmHg 80%
    14:00 -1°C° 0.6 mm 5 mps 756 mmHg 83%
    15:00 0°C° 0.1 mm 5 mps 756 mmHg 85%
    16:00 0°C° 0.1 mm 4 mps 755 mmHg 88%
    17:00 0°C° 0.1 mm 4 mps 755 mmHg 90%
    18:00 0°C° 0 mm 4 mps 754 mmHg 92%
    19:00 +2°C° 0 mm 3 mps 754 mmHg 93%
    20:00 +2°C° 0 mm 3 mps 753 mmHg 95%
    21:00 +2°C° 0 mm 3 mps 753 mmHg 96%
    22:00 +2°C° 0 mm 3 mps 753 mmHg 96%
    23:00 +2°C° 0 mm 3 mps 752 mmHg 97%
    Show more